Location: Pardubice
(50.0330°N, 15.7830°E)
Time: 11:05:39
(UTC+02:00)

Transit 2A Rocket - All Passes

Search period start: 07 October 2024 00:00
Search period end: 17 October 2024 00:00
Orbit: 582 x 908 km, 66.7° (Epoch: 06 October)

Date Brightness Start Highest point End Pass type
(mag) Time Alt. Az. Time Alt. Az. Time Alt. Az.
07 Oct - 00:43:46 10° NNW 00:47:42 18° NNE 00:51:27 10° ENE visible
07 Oct - 02:26:23 10° NNW 02:31:50 40° NE 02:36:50 10° ESE visible
07 Oct - 04:09:04 10° NW 04:14:30 49° WSW 04:19:27 10° S night (unlit)
07 Oct - 18:45:10 10° SSW 18:51:00 52° ESE 18:56:50 10° NE visible
07 Oct - 20:27:56 10° WSW 20:33:42 43° NW 20:39:24 10° NNE visible
07 Oct - 22:13:35 10° WNW 22:17:46 19° NNW 22:21:51 10° NNE visible
07 Oct - 23:59:02 10° NNW 00:02:36 16° N 00:06:02 10° NE visible
08 Oct - 01:42:00 10° NNW 01:47:02 29° NNE 01:51:44 10° E visible
08 Oct - 03:24:28 10° NW 03:30:11 79° SW 03:35:21 10° SSE night (unlit)
08 Oct - 05:08:49 10° WNW 05:11:38 14° WSW 05:14:19 10° SW night (unlit)
08 Oct - 18:01:28 10° S 18:06:46 33° ESE 18:12:07 10° NE daylight
08 Oct - 19:43:03 10° SW 19:49:03 61° NW 19:55:02 10° NNE visible
08 Oct - 21:28:04 10° WNW 21:32:45 23° NNW 21:37:21 10° NNE visible
08 Oct - 23:14:01 10° NW 23:17:27 15° N 23:20:47 10° NE visible
09 Oct - 00:57:34 10° NNW 01:02:08 23° NNE 01:06:26 10° ENE visible
09 Oct - 02:40:00 10° NW 02:45:43 69° NE 02:50:55 10° SE night (unlit)
09 Oct - 04:23:17 10° WNW 04:27:40 24° WSW 04:31:44 10° SSW night (unlit)
09 Oct - 17:18:18 10° SSE 17:22:40 21° ESE 17:27:03 10° ENE daylight
09 Oct - 18:58:26 10° SW 19:04:31 88° NW 19:10:35 10° NE visible
09 Oct - 20:42:38 10° W 20:47:49 28° NNW 20:52:55 10° NNE visible
09 Oct - 22:28:44 10° NW 22:32:19 16° N 22:35:48 10° NNE visible
10 Oct - 00:13:03 10° NNW 00:17:07 19° NNE 00:21:00 10° ENE visible
10 Oct - 01:55:34 10° NNW 02:01:07 46° NE 02:06:10 10° ESE visible
10 Oct - 03:38:22 10° NW 03:43:33 39° WSW 03:48:17 10° S night (unlit)
10 Oct - 16:36:13 10° SE 16:38:41 13° E 16:41:09 10° ENE daylight
10 Oct - 18:14:09 10° SSW 18:20:06 62° ESE 18:26:04 10° NE daylight
10 Oct - 19:57:22 10° WSW 20:03:00 37° NW 20:08:31 10° NNE visible
10 Oct - 21:43:15 10° NW 21:47:11 18° NNW 21:51:03 10° NNE visible
10 Oct - 23:28:23 10° NNW 23:32:02 16° N 23:35:32 10° NE visible
11 Oct - 01:11:09 10° NNW 01:16:21 33° NE 01:21:09 10° E visible
11 Oct - 02:53:41 10° NW 02:59:17 64° WSW 03:04:21 10° SSE night (unlit)
11 Oct - 04:39:11 10° W 04:40:31 11° W 04:41:51 10° WSW night (unlit)
11 Oct - 17:30:14 10° S 17:35:48 40° ESE 17:41:24 10° NE daylight
11 Oct - 19:12:21 10° WSW 19:18:16 52° NW 19:24:08 10° NNE visible
11 Oct - 20:57:40 10° WNW 21:02:08 21° NNW 21:06:29 10° NNE visible
11 Oct - 22:43:29 10° NNW 22:46:53 15° N 22:50:11 10° NE visible
12 Oct - 00:26:44 10° NNW 00:31:28 25° NNE 00:35:54 10° E visible
12 Oct - 02:09:09 10° NW 02:14:52 82° NE 02:20:02 10° SE night (unlit)
12 Oct - 03:52:48 10° WNW 03:56:35 19° WSW 04:00:09 10° SSW night (unlit)
12 Oct - 16:46:47 10° SSE 16:51:38 26° ESE 16:56:29 10° NE daylight
12 Oct - 18:27:35 10° SW 18:33:40 75° NW 18:39:42 10° NE daylight
12 Oct - 20:12:10 10° W 20:17:08 25° NNW 20:22:00 10° NNE visible
12 Oct - 21:58:17 10° NW 22:01:43 15° N 22:05:04 10° NNE visible
12 Oct - 23:42:14 10° NNW 23:46:28 20° NNE 23:50:30 10° ENE visible
13 Oct - 01:24:41 10° NNW 01:30:18 54° NE 01:35:24 10° ESE visible
13 Oct - 03:07:40 10° NW 03:12:31 32° WSW 03:16:59 10° S night (unlit)
13 Oct - 16:04:06 10° SE 16:07:34 16° ESE 16:11:04 10° ENE daylight
13 Oct - 17:43:09 10° SSW 17:49:11 75° ESE 17:55:12 10° NE daylight
13 Oct - 19:26:48 10° W 19:32:15 33° NW 19:37:36 10° NNE visible
13 Oct - 21:12:50 10° NW 21:16:34 17° NNW 21:20:12 10° NNE visible
13 Oct - 22:57:38 10° NNW 23:01:23 17° NNE 23:05:01 10° NE visible
14 Oct - 00:40:15 10° NNW 00:45:35 37° NE 00:50:28 10° ESE visible
14 Oct - 02:22:53 10° NW 02:28:19 52° WSW 02:33:14 10° SSE night (unlit)
14 Oct - 16:59:03 10° S 17:04:49 48° ESE 17:10:35 10° NE daylight
14 Oct - 18:41:39 10° WSW 18:47:28 45° NW 18:53:11 10° NNE visible
14 Oct - 20:27:15 10° WNW 20:31:27 19° NNW 20:35:33 10° NNE visible
14 Oct - 22:12:49 10° NNW 22:16:15 16° N 22:19:34 10° NE visible
14 Oct - 23:55:50 10° NNW 00:00:44 28° NNE 00:05:17 10° E visible
15 Oct - 01:38:17 10° NW 01:43:56 84° WSW 01:49:03 10° SSE night (unlit)
15 Oct - 03:22:26 10° WNW 03:25:26 15° WSW 03:28:19 10° SW night (unlit)
15 Oct - 16:15:22 10° S 16:20:34 31° ESE 16:25:47 10° NE daylight
15 Oct - 17:56:46 10° SW 18:02:48 64° NW 18:08:45 10° NNE daylight
15 Oct - 19:41:40 10° WNW 19:46:25 23° NNW 19:51:02 10° NNE visible
15 Oct - 21:27:44 10° NW 21:31:04 15° N 21:34:20 10° NNE visible
15 Oct - 23:11:21 10° NNW 23:15:46 22° NNE 23:19:56 10° ENE visible
16 Oct - 00:53:46 10° NNW 00:59:25 64° NE 01:04:31 10° SE visible
16 Oct - 02:36:59 10° NW 02:41:25 26° WSW 02:45:32 10° SSW night (unlit)
16 Oct - 15:32:16 10° SSE 15:36:27 20° ESE 15:40:37 10° ENE daylight
16 Oct - 17:12:09 10° SSW 17:18:15 87° ESE 17:24:16 10° NE daylight
16 Oct - 18:56:13 10° W 19:01:29 29° NNW 19:06:36 10° NNE visible
16 Oct - 20:42:21 10° NW 20:45:54 16° N 20:49:21 10° NNE visible
16 Oct - 22:26:48 10° NNW 22:30:42 18° NNE 22:34:26 10° ENE visible
